Tracking 30696 objects as of 15-Jun-2025
HD Live streaming from Space Station
objects crossing your sky now

COSMOS 970 DEB

Track COSMOS 970 DEB now!
10-day predictions


NORAD ID: 10886
Int'l Code: 1977-121AH
Perigee: 907.2 km
Apogee: 1,080.5 km
Inclination: 65.8 °
Period: 104.8 minutes
Semi major axis: 7364 km
RCS: 0.0098 m2 (small)
Launch date: December 21, 1977
Source: Commonwealth of Independent States (former USSR) (CIS)
Launch site: TYURATAM MISSILE AND SPACE COMPLEX (TTMTR)

Note: This is SATELLITE DEBRIS
Your satellite tracking list
Your tracking list is empty




NASA's NSSDC Master Catalog

Two Line Element Set (TLE):
1 10886U 77121AH  25165.43763662  .00000361  00000-0  44972-3 0  9996
2 10886  65.8419 167.4564 0117650 302.9447 207.6698 13.73581749369396
Source of the keplerian elements: AFSPC